| time (UTC) | temp F | wind direction | speed MPH | gust MPH | rain 1hr in | rain 24hr in | rain mn in | humidity % | barometer mb |
| 20260831121553 | 61 | 283 | 2.0 | 5.0 | 0.01 | 0.43 | 0.37 | 97 | 1007.5 |
| 20260831120051 | 61 | 275 | 3.0 | 5.0 | 0.01 | 0.43 | 0.37 | 98 | 1007.2 |
| 20260831114555 | 62 | 265 | 2.0 | 5.0 | 0.01 | 0.43 | 0.37 | 97 | 1007.1 |
| 20260831113045 | 62 | 280 | 3.0 | 6.0 | 0.00 | 0.42 | 0.36 | 98 | 1007.0 |
| 20260831111552 | 63 | 304 | 4.0 | 8.0 | 0.00 | 0.42 | 0.36 | 97 | 1006.9 |
| 20260831110041 | 63 | 278 | 6.0 | 11.0 | 0.00 | 0.42 | 0.36 | 97 | 1006.7 |
| 20260831104544 | 64 | 280 | 6.0 | 10.0 | 0.00 | 0.42 | 0.36 | 97 | 1006.4 |
| 20260831103037 | 64 | 295 | 5.0 | 10.0 | 0.00 | 0.42 | 0.36 | 97 | 1006.4 |
| 20260831101535 | 64 | 282 | 4.0 | 7.0 | 0.00 | 0.42 | 0.36 | 98 | 1006.2 |
| 20260831100044 | 64 | 271 | 3.0 | 10.0 | 0.00 | 0.42 | 0.36 | 99 | 1006.0 |
| 20260831094531 | 64 | 291 | 5.0 | 10.0 | 0.00 | 0.42 | 0.36 | 99 | 1005.9 |
| 20260831093030 | 64 | 279 | 4.0 | 7.0 | 0.00 | 0.42 | 0.36 | 100 | 1005.8 |
| 20260831091529 | 63 | 250 | 3.0 | 5.0 | 0.00 | 0.42 | 0.36 | 100 | 1005.6 |
| 20260831090029 | 63 | 274 | 2.0 | 5.0 | 0.00 | 0.42 | 0.36 | 100 | 1005.5 |
| 20260831084527 | 63 | 234 | 2.0 | 5.0 | 0.00 | 0.42 | 0.36 | 100 | 1005.4 |
| 20260831083025 | 64 | 275 | 2.0 | 7.0 | 0.00 | 0.42 | 0.36 | 100 | 1005.1 |
| 20260831081524 | 64 | 257 | 4.0 | 7.0 | 0.00 | 0.42 | 0.36 | 100 | 1004.9 |
| 20260831080026 | 65 | 252 | 6.0 | 9.0 | 0.00 | 0.42 | 0.36 | 100 | 1004.6 |
| 20260831074520 | 65 | 251 | 5.0 | 9.0 | 0.00 | 0.42 | 0.36 | 100 | 1004.6 |
| 20260831073030 | 65 | 245 | 3.0 | 6.0 | 0.00 | 0.42 | 0.36 | 100 | 1004.5 |
| 20260831071519 | 66 | 237 | 4.0 | 9.0 | 0.00 | 0.42 | 0.36 | 100 | 1004.5 |
| 20260831070016 | 67 | 252 | 3.0 | 9.0 | 0.00 | 0.42 | 0.36 | 100 | 1004.5 |
| 20260831064519 | 67 | 257 | 1.0 | 5.0 | 0.00 | 0.42 | 0.36 | 100 | 1004.0 |
| 20260831063022 | 67 | 233 | 3.0 | 7.0 | 0.00 | 0.42 | 0.36 | 100 | 1003.4 |
| 20260831061511 | 67 | 185 | 4.0 | 9.0 | 0.00 | 0.42 | 0.36 | 100 | 1003.7 |
| 20260831060010 | 67 | 228 | 5.0 | 10.0 | 0.36 | 0.42 | 0.36 | 100 | 1003.8 |
| 20260831054507 | 67 | 213 | 5.0 | 11.0 | 0.38 | 0.42 | 0.36 | 100 | 1004.2 |
| 20260831053006 | 68 | 164 | 1.0 | 5.0 | 0.38 | 0.42 | 0.36 | 100 | 1004.3 |
| 20260831051504 | 67 | 122 | 1.0 | 9.0 | 0.38 | 0.42 | 0.36 | 99 | 1004.3 |
| 20260831050113 | 70 | 290 | 15.0 | 30.0 | 0.02 | 0.06 | 0.00 | 95 | 1006.0 |
| 20260831044559 | 69 | 129 | 1.0 | 3.0 | 0.00 | 0.04 | 0.04 | 96 | 1004.0 |
| 20260831043056 | 69 | 131 | 0.0 | 5.0 | 0.00 | 0.04 | 0.04 | 96 | 1004.0 |
| 20260831041617 | 68 | 132 | 0.0 | 2.0 | 0.00 | 0.04 | 0.04 | 96 | 1004.0 |
| 20260831040055 | 68 | 115 | 0.0 | 3.0 | 0.00 | 0.04 | 0.04 | 97 | 1004.1 |
| 20260831034555 | 68 | 98 | 1.0 | 2.0 | 0.00 | 0.04 | 0.04 | 97 | 1004.0 |
| 20260831033107 | 67 | 94 | 1.0 | 3.0 | 0.00 | 0.04 | 0.04 | 98 | 1004.2 |
| 20260831031554 | 67 | 101 | 0.0 | 3.0 | 0.00 | 0.04 | 0.04 | 98 | 1004.4 |
| 20260831030051 | 67 | 129 | 1.0 | 3.0 | 0.00 | 0.04 | 0.04 | 99 | 1004.5 |
| 20260831024548 | 67 | 101 | 1.0 | 6.0 | 0.00 | 0.04 | 0.04 | 99 | 1004.6 |
| 20260831023046 | 67 | 118 | 1.0 | 4.0 | 0.00 | 0.04 | 0.04 | 100 | 1004.9 |
| 20260831021546 | 68 | 112 | 0.0 | 3.0 | 0.00 | 0.04 | 0.04 | 100 | 1005.1 |
| 20260831020046 | 68 | 115 | 1.0 | 4.0 | 0.00 | 0.04 | 0.04 | 100 | 1005.5 |
| 20260831014545 | 68 | 103 | 0.0 | 3.0 | 0.00 | 0.04 | 0.04 | 100 | 1005.4 |
| 20260831013054 | 68 | 113 | 1.0 | 4.0 | 0.03 | 0.04 | 0.04 | 100 | 1004.9 |
| 20260831011546 | 68 | 110 | 1.0 | 4.0 | 0.04 | 0.04 | 0.04 | 99 | 1005.0 |
| 20260831010054 | 69 | 105 | 1.0 | 3.0 | 0.04 | 0.04 | 0.04 | 99 | 1004.9 |
| 20260831004545 | 70 | 112 | 1.0 | 3.0 | 0.04 | 0.04 | 0.04 | 95 | 1005.4 |
| 20260831003050 | 71 | 98 | 1.0 | 5.0 | 0.00 | 0.00 | 0.00 | 91 | 1005.4 |
| 20260831001540 | 73 | 167 | 2.0 | 6.0 | 0.00 | 0.00 | 0.00 | 85 | 1005.4 |
| 20260831000040 | 74 | 110 | 2.0 | 5.0 | 0.00 | 0.00 | 0.00 | 85 | 1005.1 |
| 20260830234547 | 74 | 153 | 2.0 | 6.0 | 0.00 | 0.00 | 0.00 | 85 | 1005.1 |
| 20260830233037 | 75 | 98 | 1.0 | 6.0 | 0.00 | 0.00 | 0.00 | 84 | 1005.0 |
| 20260830231539 | 75 | 127 | 1.0 | 6.0 | 0.00 | 0.00 | 0.00 | 84 | 1005.4 |
| 20260830230043 | 75 | 133 | 2.0 | 6.0 | 0.00 | 0.00 | 0.00 | 83 | 1005.5 |
| 20260830224538 | 75 | 99 | 1.0 | 7.0 | 0.00 | 0.00 | 0.00 | 83 | 1005.7 |
| 20260830223035 | 76 | 124 | 3.0 | 8.0 | 0.00 | 0.00 | 0.00 | 82 | 1005.2 |
| 20260830221532 | 77 | 115 | 3.0 | 7.0 | 0.00 | 0.00 | 0.00 | 81 | 1005.2 |
| 20260830220030 | 76 | 109 | 3.0 | 8.0 | 0.00 | 0.00 | 0.00 | 82 | 1005.7 |
| 20260830214527 | 77 | 133 | 2.0 | 5.0 | 0.00 | 0.00 | 0.00 | 82 | 1006.1 |
| 20260830213024 | 77 | 152 | 2.0 | 8.0 | 0.00 | 0.00 | 0.00 | 81 | 1006.2 |
| 20260830211522 | 78 | 143 | 2.0 | 6.0 | 0.00 | 0.00 | 0.00 | 81 | 1006.5 |
| 20260830210020 | 77 | 105 | 1.0 | 5.0 | 0.00 | 0.00 | 0.00 | 81 | 1006.7 |
| 20260830204518 | 77 | 122 | 1.0 | 5.0 | 0.00 | 0.00 | 0.00 | 81 | 1006.9 |
| 20260830203023 | 77 | 86 | 2.0 | 6.0 | 0.00 | 0.00 | 0.00 | 81 | 1007.0 |
| 20260830201616 | 77 | 137 | 1.0 | 5.0 | 0.00 | 0.00 | 0.00 | 81 | 1007.1 |
| 20260830200013 | 77 | 141 | 1.0 | 5.0 | 0.00 | 0.00 | 0.00 | 82 | 1007.4 |
| 20260830194512 | 77 | 100 | 1.0 | 4.0 | 0.00 | 0.00 | 0.00 | 82 | 1007.4 |
| 20260830193011 | 77 | 85 | 3.0 | 7.0 | 0.00 | 0.00 | 0.00 | 81 | 1007.5 |
| 20260830191510 | 78 | 94 | 2.0 | 7.0 | 0.00 | 0.00 | 0.00 | 79 | 1007.4 |
| 20260830190007 | 78 | 154 | 2.0 | 7.0 | 0.00 | 0.00 | 0.00 | 81 | 1007.5 |
| 20260830184504 | 77 | 81 | 2.0 | 5.0 | 0.00 | 0.00 | 0.00 | 81 | 1007.5 |
| 20260830183002 | 77 | 133 | 2.0 | 5.0 | 0.00 | 0.00 | 0.00 | 82 | 1007.6 |
| 20260830181600 | 76 | 142 | 1.0 | 5.0 | 0.00 | 0.00 | 0.00 | 83 | 1007.7 |
| 20260830180106 | 75 | 84 | 1.0 | 6.0 | 0.00 | 0.00 | 0.00 | 84 | 1007.7 |
| 20260830174558 | 76 | 136 | 1.0 | 4.0 | 0.00 | 0.00 | 0.00 | 83 | 1007.7 |
| 20260830173111 | 75 | 155 | 1.0 | 5.0 | 0.00 | 0.00 | 0.00 | 84 | 1007.9 |
| 20260830171555 | 76 | 108 | 0.0 | 3.0 | 0.00 | 0.00 | 0.00 | 83 | 1008.2 |
| 20260830170056 | 76 | 101 | 1.0 | 3.0 | 0.00 | 0.00 | 0.00 | 83 | 1008.2 |
| 20260830164557 | 75 | 145 | 1.0 | 5.0 | 0.00 | 0.00 | 0.00 | 85 | 1008.1 |
| 20260830163057 | 74 | 81 | 1.0 | 4.0 | 0.00 | 0.00 | 0.00 | 84 | 1008.1 |
| 20260830161609 | 75 | 80 | 2.0 | 4.0 | 0.00 | 0.00 | 0.00 | 84 | 1008.1 |
| 20260830160047 | 75 | 103 | 2.0 | 4.0 | 0.00 | 0.00 | 0.00 | 85 | 1008.2 |
| 20260830154542 | 72 | 102 | 1.0 | 4.0 | 0.00 | 0.00 | 0.00 | 90 | 1008.5 |
| 20260830153047 | 72 | 83 | 0.0 | 3.0 | 0.00 | 0.00 | 0.00 | 89 | 1008.8 |
| 20260830151542 | 72 | 71 | 2.0 | 5.0 | 0.00 | 0.00 | 0.00 | 88 | 1008.8 |
| 20260830150051 | 72 | 139 | 1.0 | 5.0 | 0.00 | 0.00 | 0.00 | 90 | 1008.7 |
| 20260830144533 | 68 | 126 | 1.0 | 3.0 | 0.00 | 0.00 | 0.00 | 95 | 1008.6 |
| 20260830143033 | 68 | 130 | 1.0 | 5.0 | 0.00 | 0.00 | 0.00 | 94 | 1008.7 |
| 20260830141535 | 68 | 128 | 0.0 | 3.0 | 0.00 | 0.00 | 0.00 | 95 | 1009.1 |
| 20260830140031 | 67 | 110 | 1.0 | 3.0 | 0.00 | 0.00 | 0.00 | 96 | 1009.1 |
| 20260830134538 | 67 | 105 | 0.0 | 4.0 | 0.00 | 0.00 | 0.00 | 96 | 1009.1 |
| 20260830133031 | 67 | 136 | 0.0 | 4.0 | 0.00 | 0.00 | 0.00 | 96 | 1009.1 |
| 20260830131638 | 67 | 102 | 1.0 | 3.0 | 0.00 | 0.00 | 0.00 | 96 | 1009.0 |
| 20260830130029 | 66 | 108 | 0.0 | 3.0 | 0.00 | 0.00 | 0.00 | 96 | 1009.1 |
| 20260830124529 | 66 | 101 | 0.0 | 3.0 | 0.00 | 0.00 | 0.00 | 96 | 1008.9 |
| 20260830123027 | 66 | 103 | 0.0 | 2.0 | 0.00 | 0.00 | 0.00 | 97 | 1009.0 |